Location: Nairn
(57.5833°N, 3.8667°W)
Time: 02:20:45
(UTC+00:00)

H-2A R/B - Pass Details

Date: 07 August 2020
Orbit: 578 x 654 km, 98.5° (Epoch: 19 September)

Event Time Altitude Azimuth Distance (km) Brightness Sun altitude
Rises 02:11:45 0° 124° (SE) 2,805 5.4 -12.6°
Reaches altitude 10° 02:14:10 10° 112° (ESE) 1,903 4.6 -12.5°
Maximum altitude 02:17:32 25° 57° (ENE) 1,195 4.3 -12.3°
Drops below altitude 10° 02:20:54 10° 2° (N) 1,909 5.6 -12.1°
Sets 02:23:20 0° 349° (N) 2,816 6.3 -11.9°
